• In Russia
  • List of Countries
  • For 7 days
  • Water Temperature
  • Weather Map
  • Weather Widgets
  • user-avatar
    Login

    Hourly Weather Chakhansur

    Today, 15 December, Sunday

    Time Temperature Precipitation Wind Pressure Humidity
    00:00 +12°C° 0 mm 1 mps 723 mmHg 37%
    01:00 +12°C° 0 mm 1 mps 723 mmHg 37%
    02:00 +12°C° 0 mm 1 mps 723 mmHg 38%
    03:00 +12°C° 0 mm 1 mps 722 mmHg 40%
    04:00 +11°C° 0 mm 1 mps 722 mmHg 41%
    05:00 +11°C° 0 mm 1 mps 723 mmHg 42%
    06:00 +11°C° 0 mm 1 mps 723 mmHg 43%
    07:00 +11°C° 0 mm 1 mps 723 mmHg 44%
    08:00 +12°C° 0 mm 1 mps 723 mmHg 40%
    09:00 +14°C° 0 mm 1 mps 723 mmHg 35%
    10:00 +15°C° 0 mm 1 mps 724 mmHg 31%
    11:00 +16°C° 0 mm 1 mps 723 mmHg 29%
    12:00 +15°C° 0 mm 0 mps 723 mmHg 28%
    13:00 +16°C° 0 mm 0 mps 722 mmHg 26%
    14:00 +18°C° 0 mm 1 mps 722 mmHg 26%
    15:00 +18°C° 0 mm 1 mps 722 mmHg 26%
    16:00 +17°C° 0 mm 2 mps 721 mmHg 27%
    17:00 +17°C° 0 mm 2 mps 722 mmHg 29%
    18:00 +16°C° 0 mm 2 mps 722 mmHg 31%
    19:00 +15°C° 0 mm 2 mps 722 mmHg 33%
    20:00 +15°C° 0 mm 2 mps 722 mmHg 33%
    21:00 +14°C° 0 mm 2 mps 722 mmHg 33%
    22:00 +14°C° 0 mm 2 mps 722 mmHg 34%
    23:00 +14°C° 0 mm 2 mps 722 mmHg 34%

    Tomorrow, 16 December, Monday

    Time Temperature Precipitation Wind Pressure Humidity
    00:00 +14°C° 0 mm 2 mps 722 mmHg 35%
    01:00 +13°C° 0 mm 2 mps 722 mmHg 36%
    02:00 +13°C° 0 mm 2 mps 722 mmHg 37%
    03:00 +12°C° 0 mm 2 mps 722 mmHg 39%
    04:00 +12°C° 0 mm 2 mps 722 mmHg 40%
    05:00 +12°C° 0 mm 2 mps 722 mmHg 41%
    06:00 +12°C° 0 mm 2 mps 723 mmHg 42%
    07:00 +10°C° 0 mm 2 mps 723 mmHg 43%
    08:00 +13°C° 0 mm 2 mps 723 mmHg 39%
    09:00 +15°C° 0 mm 2 mps 724 mmHg 36%
    10:00 +16°C° 0 mm 2 mps 724 mmHg 32%
    11:00 +17°C° 0 mm 2 mps 724 mmHg 30%
    12:00 +18°C° 0 mm 2 mps 723 mmHg 28%
    13:00 +19°C° 0 mm 2 mps 723 mmHg 26%
    14:00 +20°C° 0 mm 1 mps 723 mmHg 26%
    15:00 +20°C° 0 mm 1 mps 722 mmHg 27%
    16:00 +20°C° 0 mm 1 mps 722 mmHg 28%
    17:00 +18°C° 0 mm 2 mps 722 mmHg 29%
    18:00 +18°C° 0 mm 2 mps 723 mmHg 31%
    19:00 +17°C° 0 mm 3 mps 723 mmHg 33%
    20:00 +17°C° 0 mm 3 mps 723 mmHg 34%
    21:00 +16°C° 0 mm 3 mps 723 mmHg 35%
    22:00 +16°C° 0 mm 3 mps 723 mmHg 37%
    23:00 +16°C° 0 mm 3 mps 723 mmHg 37%

    Day after tomorrow, 17 December, Tuesday

    Time Temperature Precipitation Wind Pressure Humidity
    00:00 +14°C° 0 mm 3 mps 723 mmHg 38%
    01:00 +14°C° 0 mm 3 mps 723 mmHg 39%
    02:00 +14°C° 0 mm 3 mps 723 mmHg 40%
    03:00 +13°C° 0 mm 3 mps 722 mmHg 41%
    04:00 +13°C° 0 mm 3 mps 722 mmHg 43%
    05:00 +12°C° 0 mm 3 mps 723 mmHg 43%
    06:00 +12°C° 0 mm 3 mps 723 mmHg 44%
    07:00 +12°C° 0 mm 3 mps 723 mmHg 45%
    08:00 +13°C° 0 mm 3 mps 724 mmHg 42%
    09:00 +14°C° 0 mm 3 mps 724 mmHg 40%
    10:00 +16°C° 0 mm 3 mps 724 mmHg 37%
    11:00 +14°C° 0.4 mm 3 mps 724 mmHg 46%
    12:00 +13°C° 0.4 mm 3 mps 723 mmHg 55%
    13:00 +12°C° 0.4 mm 3 mps 722 mmHg 64%
    14:00 +12°C° 0.8 mm 3 mps 722 mmHg 70%
    15:00 +12°C° 0.8 mm 4 mps 722 mmHg 76%
    16:00 +12°C° 0.8 mm 4 mps 722 mmHg 82%
    17:00 +12°C° 1.7 mm 4 mps 723 mmHg 85%
    18:00 +10°C° 1.7 mm 5 mps 723 mmHg 88%
    19:00 +10°C° 1.7 mm 5 mps 724 mmHg 90%
    20:00 +12°C° 1.8 mm 4 mps 724 mmHg 91%
    21:00 +12°C° 1.8 mm 3 mps 724 mmHg 92%
    22:00 +12°C° 1.8 mm 3 mps 724 mmHg 93%
    23:00 +12°C° 0.2 mm 3 mps 724 mmHg 92%

    18 December, Wednesday

    Time Temperature Precipitation Wind Pressure Humidity
    00:00 +12°C° 0.2 mm 3 mps 724 mmHg 91%
    01:00 +12°C° 0.2 mm 3 mps 723 mmHg 90%
    02:00 +13°C° 0.4 mm 2 mps 723 mmHg 90%
    03:00 +13°C° 0.4 mm 2 mps 723 mmHg 90%
    04:00 +13°C° 0.4 mm 1 mps 723 mmHg 91%
    05:00 +13°C° 0.3 mm 1 mps 723 mmHg 91%
    06:00 +13°C° 0.3 mm 1 mps 723 mmHg 90%
    07:00 +13°C° 0.3 mm 1 mps 724 mmHg 90%
    08:00 +14°C° 0 mm 1 mps 724 mmHg 88%
    09:00 +14°C° 0 mm 1 mps 724 mmHg 85%
    10:00 +14°C° 0 mm 1 mps 724 mmHg 83%
    11:00 +15°C° 0 mm 1 mps 724 mmHg 81%
    12:00 +15°C° 0 mm 2 mps 723 mmHg 79%
    13:00 +15°C° 0 mm 2 mps 722 mmHg 77%
    14:00 +15°C° 0.2 mm 2 mps 722 mmHg 77%
    15:00 +14°C° 0.2 mm 3 mps 722 mmHg 78%
    16:00 +14°C° 0.2 mm 3 mps 722 mmHg 78%
    17:00 +14°C° 1 mm 4 mps 723 mmHg 82%
    18:00 +13°C° 1 mm 4 mps 723 mmHg 85%
    19:00 +13°C° 1 mm 5 mps 723 mmHg 89%
    20:00 +12°C° 0.3 mm 5 mps 723 mmHg 86%
    21:00 +11°C° 0.3 mm 6 mps 723 mmHg 83%
    22:00 +10°C° 0.3 mm 6 mps 724 mmHg 80%
    23:00 +10°C° 0.7 mm 6 mps 723 mmHg 80%

    19 December, Thursday

    Time Temperature Precipitation Wind Pressure Humidity
    00:00 +9°C° 0.7 mm 6 mps 723 mmHg 80%
    01:00 +9°C° 0.7 mm 6 mps 723 mmHg 80%
    02:00 +9°C° 0.4 mm 6 mps 723 mmHg 79%
    03:00 +8°C° 0.4 mm 6 mps 723 mmHg 77%
    04:00 +8°C° 0.4 mm 6 mps 723 mmHg 76%
    05:00 +8°C° 0.3 mm 6 mps 723 mmHg 76%
    06:00 +8°C° 0.3 mm 5 mps 724 mmHg 75%
    07:00 +8°C° 0.3 mm 4 mps 724 mmHg 75%
    08:00 +8°C° 0.1 mm 5 mps 724 mmHg 72%
    09:00 +8°C° 0.1 mm 5 mps 724 mmHg 69%
    10:00 +9°C° 0.1 mm 5 mps 724 mmHg 66%
    11:00 +10°C° 0 mm 5 mps 724 mmHg 61%
    12:00 +11°C° 0 mm 6 mps 723 mmHg 55%
    13:00 +13°C° 0 mm 6 mps 723 mmHg 50%
    14:00 +13°C° 0 mm 6 mps 722 mmHg 49%
    15:00 +13°C° 0 mm 6 mps 722 mmHg 49%
    16:00 +13°C° 0 mm 6 mps 722 mmHg 48%
    17:00 +11°C° 0 mm 6 mps 722 mmHg 51%
    18:00 +10°C° 0 mm 6 mps 722 mmHg 53%
    19:00 +9°C° 0 mm 5 mps 722 mmHg 56%
    20:00 +9°C° 0 mm 6 mps 722 mmHg 56%
    21:00 +9°C° 0 mm 6 mps 722 mmHg 56%
    22:00 +9°C° 0 mm 6 mps 722 mmHg 56%
    23:00 +8°C° 0 mm 6 mps 722 mmHg 57%

    20 December, Friday

    Time Temperature Precipitation Wind Pressure Humidity
    00:00 +8°C° 0 mm 7 mps 722 mmHg 58%
    01:00 +7°C° 0 mm 8 mps 721 mmHg 59%
    02:00 +6°C° 0 mm 8 mps 721 mmHg 59%
    03:00 +6°C° 0 mm 8 mps 721 mmHg 58%
    04:00 +6°C° 0 mm 8 mps 721 mmHg 58%
    05:00 +6°C° 0 mm 8 mps 721 mmHg 57%
    06:00 +6°C° 0 mm 8 mps 721 mmHg 56%
    07:00 +5°C° 0 mm 7 mps 721 mmHg 55%
    08:00 +6°C° 0 mm 8 mps 722 mmHg 51%
    09:00 +7°C° 0 mm 9 mps 722 mmHg 48%
    10:00 +8°C° 0 mm 9 mps 722 mmHg 44%
    11:00 +10°C° 0 mm 9 mps 722 mmHg 41%
    12:00 +11°C° 0 mm 9 mps 721 mmHg 39%
    13:00 +12°C° 0 mm 8 mps 721 mmHg 36%
    14:00 +12°C° 0 mm 8 mps 721 mmHg 36%
    15:00 +12°C° 0 mm 7 mps 720 mmHg 35%
    16:00 +12°C° 0 mm 7 mps 720 mmHg 34%
    17:00 +11°C° 0 mm 7 mps 720 mmHg 37%
    18:00 +10°C° 0 mm 7 mps 721 mmHg 39%
    19:00 +9°C° 0 mm 7 mps 721 mmHg 42%
    20:00 +9°C° 0 mm 7 mps 721 mmHg 44%
    21:00 +8°C° 0 mm 6 mps 721 mmHg 46%
    22:00 +8°C° 0 mm 6 mps 721 mmHg 47%
    23:00 +7°C° 0 mm 5 mps 721 mmHg 49%
    Show more